Location: Monfort
(47.1967°N, 0.2115°W)
Time: 08:34:19
(UTC+00:00)

FALCON 9 DEB - Pass Details

Date: 24 October 2020
Orbit: 378 x 396 km, 53.0° (Epoch: 27 November)

Event Time Altitude Azimuth Distance (km) Brightness Sun altitude
Rises 18:17:39 0° 215° (SW) 2,299 7.4 -14.4°
Reaches altitude 10° 18:19:50 10° 205° (SSW) 1,441 6.1 -14.7°
Maximum altitude 18:22:45 31° 141° (SE) 717 3.9 -15.2°
Enters shadow 18:23:07 30° 125° (SE) 735 3.8 -15.3°
